Location: Unspecified
(38.9513°N, 0.0000°E)
Time: 05:08:26
(UTC+00:00)

CZ-6A DEB - Visible Passes

Search period start: 04 April 2026 00:00
Search period end: 14 April 2026 00:00
Orbit: 650 x 784 km, 88.9° (Epoch: 28 March)

Date Brightness Start Highest point End Pass type
(mag) Time Alt. Az. Time Alt. Az. Time Alt. Az.
4 Apr ? 04:36:21 10° SE 04:40:54 33° E 04:45:19 10° NNE visible
5 Apr ? 03:48:37 10° E 03:50:07 11° ENE 03:51:36 10° ENE visible
6 Apr ? 04:32:50 10° SSE 04:37:29 37° E 04:42:00 10° NNE visible
7 Apr ? 03:44:29 10° E 03:46:39 13° ENE 03:48:47 10° NE visible
8 Apr ? 04:29:18 10° SSE 04:34:03 42° E 04:38:39 10° NNE visible
9 Apr ? 03:40:32 10° ESE 03:43:10 14° ENE 03:45:45 10° NE visible
10 Apr ? 04:25:48 10° SSE 04:30:36 47° E 04:35:15 10° NNE visible
11 Apr ? 03:36:41 10° ESE 03:39:40 16° ENE 03:42:36 10° NE visible
12 Apr ? 04:22:17 10° SSE 04:27:07 54° E 04:31:49 10° N visible
13 Apr ? 03:32:52 10° ESE 03:36:09 18° ENE 03:39:21 10° NE visible
